Regional Weather Roundup
Issued by NWS Albany, NY

Home | Current Version | Previous Version | Text Only | Print | Product List | Glossary On
Versions: 1 2 3 4 5 6 7 8 9 10 11 12 13 14 15 16 17 18 19 20 21 22 23 24 25 26 27 28
000
ASUS41 KALY 230410
RWRALY

NEW YORK STATE HOURLY WEATHER ROUNDUP
NATIONAL WEATHER SERVICE ALBANY NY
1100 PM EST SUN JAN 22 2017

NOTE: "FAIR" INDICATES FEW OR NO CLOUDS BELOW 12,000 FEET WITH NO
SIGNIFICANT WEATHER AND/OR NO OBSTRUCTIONS TO VISIBILITY.

NYZ032-033-038>043-046>054-057>066-NYZ062>081-082-084-230500-
EAST


CITY           SKY/WX    TMP DP  RH WIND       PRES   REMARKS
ALBANY         DRIZZLE   37  35  92 CALM      29.90R
GLENS FALLS    CLOUDY    37  33  85 N6        29.90S WCI  32
POUGHKEEPSIE   CLOUDY    42  36  79 E10G22    29.86R
NEWBURGH       CLOUDY    43  39  87 E16       29.85R
MONTGOMERY     CLOUDY    44  39  82 NE13      29.83R
WHITE PLAINS   MOCLDY    44  40  85 E15G23    29.82R
ISLIP          CLOUDY    44  41  89 E18G32    29.82R
NEW YORK CITY  CLOUDY    47  40  76 E23G32    29.81R
CENTRAL PARK   CLOUDY    45  40  82 E16G29    29.83R
$$

NYZ005>009-017-018-044>046-055-056-230500-
CENTRAL


CITY           SKY/WX    TMP DP  RH WIND       PRES   REMARKS
FULTON         CLOUDY    44  40  85 E7        29.77R
SYRACUSE       CLOUDY    42  39  89 E12       29.76R
ROME           CLOUDY    42  39  89 E13       29.81R
ELMIRA         CLOUDY    45  41  86 E7        29.71S FOG
BINGHAMTON     CLOUDY    46  43  89 SE10      29.71S
MONTICELLO     CLOUDY    39  37  93 E16G23    29.80R WCI  30
$$

NYZ026>034-041>043-087-230500-
NORTH


CITY           SKY/WX    TMP DP  RH WIND       PRES   REMARKS
WATERTOWN      CLOUDY    35  32  88 NE13      29.82F WCI  26
FORT DRUM      NOT AVBL
OGDENSBURG     CLOUDY    33  30  88 NE10G20   29.90R WCI  25
MASSENA        CLOUDY    32  28  85 NE17      29.95R WCI  21
SARANAC LAKE   CLOUDY    31  29  92 E8        29.83R WCI  23
PLATTSBURGH    CLOUDY    32  31  96 N8        29.95R FOG     WCI  25
$$

NYZ001>004-010>016-019>021-085-230500-
WEST


CITY           SKY/WX    TMP DP  RH WIND       PRES   REMARKS
NIAGARA FALLS  CLOUDY    37  34  89 E18       29.72R WCI  27
BUFFALO        LGT RAIN  37  35  92 NE14      29.71S FOG     WCI  28
DUNKIRK        CLOUDY    41  41 100 NE8       29.64S FOG
JAMESTOWN        N/A     50  45  81 E8        29.62S
WELLSVILLE     CLOUDY    49  45  86 E8        29.68S
ROCHESTER      CLOUDY    38  36  92 NE8       29.77S WCI  32
PENN YAN       FOG       41  38  89 N3        29.74S VSB 1/4
$$

             KEY
       WCI = WIND CHILL INDEX
       VSB = VISIBILITY
       HX  = HEAT INDEX
$$




USA.gov is the U.S. government's official web portal to all federal, state and local government web resources and services.